Location: Newark
(43.6583°N, 1.6617°E)
Time: 19:48:50
(UTC+00:00)

Courier 1B - Pass Details

Date: 30 August 2019
Orbit: 962 x 1209 km, 28.3° (Epoch: 15 October)

Event Time Altitude Azimuth Distance (km) Brightness Sun altitude
Rises 17:40:28 0° 251° (WSW) 3,894 12.1 8.6°
Reaches altitude 10° 17:44:11 10° 234° (SW) 2,887 10.9 7.9°
Maximum altitude 17:48:45 19° 193° (SSW) 2,260 9.6 7.1°
Drops below altitude 10° 17:53:11 10° 152° (SSE) 2,772 9.6 6.3°
Sets 17:56:39 0° 134° (SE) 3,685 10.0 5.7°
